Regional Weather Roundup
Issued by NWS New Orleans/Baton Rouge, LA

Home | Current Version | Previous Version | Text Only | Print | Product List | Glossary On
Versions: 1 2 3 4 5 6 7 8 9 10 11 12 13 14 15 16 17 18 19 20 21 22 23 24 25 26 27 28 29 30 31 32 33 34 35 36 37 38 39 40 41 42 43 44 45 46 47 48 49 50
409
ASUS44 KLIX 221310
RWRLIX
NEW ORLEANS REGIONAL WEATHER ROUNDUP
NATIONAL WEATHER SERVICE NEW ORLEANS LA
800 AM CDT FRI AUG 22 2014

NOTE: "FAIR" INDICATES FEW OR NO CLOUDS BELOW 12,000 FEET WITH NO
      SIGNIFICANT WEATHER AND/OR OBSTRUCTIONS TO VISIBILITY.
      SKY/WX - SKY CONDITION AND SIGNIFICANT WEATHER.
      TMP - AIR TEMPERATURE.     DP    - DEWPOINT TEMPERATURE.
      RH  - RELATIVE HUMIDITY.   PRES  - PRESSURE.
      HI  - HEAT INDEX.          WCI   - WIND CHILL INDEX.

*  THESE STATIONS ARE NOT NWS OR FAA STATIONS AND ARE NOT UNDER
   NWS QUALITY CONTROL.

LAZ038-040-048-061>063-065>067-069-221400-
SOUTHEAST LOUISIANA

CITY           SKY/WX    TMP DP  RH WIND       PRES   REMARKS
N.O. AUDUBON     N/A     84  76  77 MISG        N/A
N.O. INTL ARPT MOSUNNY   80  75  84 W3        30.11S
N.O. LAKEFRONT MOSUNNY   83  75  77 NW3       30.11S
N.O. DOWNTOWN*   N/A     82  73  74 CALM      30.12S
SLIDELL        SUNNY     78  72  81 CALM      30.11R
BATON ROUGE    PTSUNNY   77  74  90 CALM      30.12R
BOOTHVILLE     SUNNY     84  78  82 N6        30.12R HX  95
BELLE CHASSE   SUNNY     79  74  84 CALM      30.11R
BOGALUSA*        N/A     77  73  86 CALM      30.13R
GALLIANO*      NOT AVBL
NEW ROADS*       N/A     76  75  96 CALM      30.11S
GONZALES*        N/A     76  76 100 CALM      30.11S
HAMMOND*       MOSUNNY   77  72  83 CALM      30.13S
HOUMA*         MOSUNNY   77  72  83 CALM      30.11S
PORT FOURCHON* SUNNY     84  79  84 NE7       30.12F HX  96

$$

MSZ070-080>082-221400-
SOUTHERN MISSISSIPPI

CITY           SKY/WX    TMP DP  RH WIND       PRES   REMARKS
MCCOMB         MOSUNNY   75  72  90 CALM      30.13S
GULFPORT       SUNNY     80  74  81 CALM      30.10S
BILOXI         SUNNY     81  74  80 N3        30.11R
PASCAGOULA     SUNNY     79  76  90 CALM      30.11R
STENNIS ARPT*  SUNNY    N/A N/A N/A CALM      30.11S

$$

COASTAL OBSERVATIONS
LAKE AND NEARSHORE STATIONS

STATION/POSITION TIME  TEMP    WIND        PRES    WAVE
                       AIR SEA DIR/SP/G            HT/PER
                 (UTC) (F)     (DEG/KT/KT) (MB)    (FT/S)
PASCAGOULA       1300   81     330/  4/  5 1018.9
WAVELAND YACHT   1300   79     340/  4/  4 1018.9
GRAND ISLE       1300   85 88   10/  6/  8 1020.4
SOUTHWEST PASS   1300   86 87  330/  4/  5 1020.1
NEW CANAL        1300   83 84   10/  2/  2 1020.0
SHELL BEACH      1300   82 82  340/  3/  4 1019.5

OFFSHORE STATIONS

STATION/POSITION TIME  TEMP    WIND        PRES    WAVE
                       AIR SEA DIR/SP/G            HT/PER
                 (UTC) (F)     (DEG/KT/KT) (MB)    (FT/S)
64 S DAUPHIN ISL 1224   85 88  330/  8/ 12 1019.7

$$




USA.gov is the U.S. government's official web portal to all federal, state and local government web resources and services.